Regional Weather Roundup
Issued by NWS

Home | Current Version | Previous Version | Text Only | Print | Product List | Glossary On
Versions: 1 2 3 4 5 6 7 8 9 10 11 12 13 14 15 16 17 18 19 20 21 22 23 24 25 26 27
000
ASUS43 KMPX 170410
RWRMN
WEATHER ROUNDUP FOR MINNESOTA
NATIONAL WEATHER SERVICE TWIN CITIES/CHANHASSEN MN
1100 PM CDT WED JUN 16 2021


NOTE: "FAIR" INDICATES FEW OR NO CLOUDS BELOW 12,000 FEET WITH NO
SIGNIFICANT WEATHER AND/OR OBSTRUCTIONS TO VISIBILITY. N/A MEANS
CURRENT SKY AND/OR WEATHER CONDITIONS ARE NOT AVAILABLE.

MNZ060>063-068>070-170500-
   Twin Cities Metro

CITY           SKY/WX    TMP DP  RH WIND       PRES   REMARKS
TWIN CITIES    PTCLDY    79  56  45 SE10      29.89F
ST PAUL        PTCLDY    76  57  51 SE8       29.90F
CRYSTAL        PTCLDY    79  55  43 SE7       29.87F
BLAINE         PTCLDY    77  55  47 SE5       29.89F
LAKEVILLE      PTCLDY    72  54  53 E3        29.91S
EDEN PRAIRIE   PTCLDY    79  54  41 SE10      29.88F
SOUTH ST PAUL  PTCLDY    77  55  45 CALM      29.91F
LAKE ELMO      FAIR      73  54  49 SE7       29.92F
$$
MNZ001>005-007-008-013>017-022>024-027-028-170500-
   Northwest Minnesota

CITY           SKY/WX    TMP DP  RH WIND       PRES   REMARKS
BEMIDJI        PTCLDY    73  59  60 SE6       29.87S
HALLOCK        CLEAR     72  52  49 NW7       29.83R
ROSEAU         CLEAR     75  52  43 W8        29.82R
WARROAD        CLEAR     72  66  83 SW7       29.81R
THIEF RVR FALL CLEAR     77  53  43 W9        29.86R
CROOKSTON      CLEAR     77  45  31 N13G21    29.85R
FOSSTON        CLEAR     70  55  60 S7        29.85S
DETROIT LAKES  CLOUDY    75  61  60 S6        29.87S
MOORHEAD       CLEAR     82  54  36 CALM      29.86R
PARK RAPIDS    PTCLDY    77  58  51 SE6       29.89R
MAHNOMEN         N/A     73  59  62 S8        29.85S
$$
MNZ006-009>011-018-025>026-170500-
   North Central Minnesota

CITY           SKY/WX    TMP DP  RH WIND       PRES   REMARKS
BAUDETTE       CLEAR     69  61  75 S7        29.82F
INTL FALLS     CLOUDY    67  61  81 VRB3      29.83F
WASKISH        CLEAR     70  61  73 S6        29.84F
BIG FORK       CLOUDY    68  61  77 S5        29.93F
LONGVILLE      CLOUDY    72  61  68 CALM      29.89F
GRAND RAPIDS   PTCLDY    71  59  65 SE7       29.92F
ORR            MOCLDY    64  61  88 S7        29.85F
COOK           MOCLDY    66  61  82 S7        29.87F
WALKER         MOCLDY    74  61  62 SE3       29.88F
$$
MNZ012-019>021-037-170500-
   Northeast Minnesota

CITY           SKY/WX    TMP DP  RH WIND       PRES   REMARKS
DULUTH         TSTM      62  53  72 S6        29.95F
ELY            DRIZZLE   64  54  68 W6        29.88F
HIBBING        CLOUDY    64  57  78 SE7       29.92F
DULUTH HARBOR  MOCLDY    63  52  67 SE7       29.96F
TWO HARBORS    CLOUDY    61  45  55 CALM      29.93F
SILVER BAY       N/A     57  41  54 W3        29.95F
GRAND MARAIS     N/A     54  43  66 NE3       29.89F
G MARAIS ARPRT CLOUDY    57  30  35 SE5       29.91F
$$
MNZ029>031-032-039>041-046>048-054>057-064-170500-
   West Central Minnesota

CITY           SKY/WX    TMP DP  RH WIND       PRES   REMARKS
FERGUS FALLS   CLEAR     79  61  53 SE8       29.82S
WHEATON        CLEAR     79  63  57 E7        29.83S
MORRIS         MOCLDY    77  55  47 SE6       29.86S
ALEXANDRIA     CLOUDY    78  58  49 SE8       29.89S
WADENA         MOCLDY    75  61  60 SE3       29.88R
GLENWOOD       CLEAR     75  61  60 E5        29.89S
APPLETON       CLEAR     79  63  57 NE3       29.84R
BENSON         MOCLDY    79  61  53 CALM      29.85S
ORTONVILLE     CLOUDY    81  66  61 NW6       29.85R
MADISON        CLEAR     77  68  73 CALM      29.86R
WILLMAR        FAIR      79  59  50 SE6       29.89S
$$
MNZ033>034-036-042>043-049>051-058-059-170500-
   Central Minnesota

CITY           SKY/WX    TMP DP  RH WIND       PRES   REMARKS
ST CLOUD       CLEAR     75  56  51 E6        29.88S
SAUK CENTRE    MOCLDY    75  59  57 E6        29.88F
PAYNESVILLE    PTCLDY    77  59  53 SE6       29.88F
AITKIN         CLEAR     68  57  68 CALM      29.90F
BRAINERD       CLEAR     73  56  54 CALM      29.90S
STAPLES        MOCLDY    75  59  57 CALM      29.88S
LONG PRAIRIE   MOCLDY    72  59  64 E3        29.89F
LITTLE FALLS   CLEAR     73  46  38 SE7       29.89S
CAMP RIPLEY    FAIR      74  58  57 SE6       29.89S
LITCHFIELD     CLEAR     75  59  57 SE5       29.88R
BUFFALO        PTCLDY    76  54  45 MISG      29.89F
MAPLE LAKE     PTCLDY   N/A N/A N/A CALM      29.89S
HUTCHINSON     MOCLDY    77  59  55 E5        29.88S
$$
MNZ037-044-045-052-053-170500-
   East Central Minnesota

CITY           SKY/WX    TMP DP  RH WIND       PRES   REMARKS
PRINCETON      PTCLDY    75  57  53 E3        29.89F
MORA           PTCLDY    68  55  64 CALM      29.93S
CAMBRIDGE      PTCLDY    77  57  50 SE5       29.90F
RUSH CITY      PTCLDY    72  56  58 E5        29.92F
MOOSE LAKE     PTCLDY    63  50  63 CALM      29.93F
HINCKLEY       PTCLDY    70  59  68 E3        29.93F
CLOQUET        CLOUDY    61  46  59 E6        29.94F
$$
MNZ071>073-080-081-089-090-097-098-170500-
   Southwest Minnesota

CITY           SKY/WX    TMP DP  RH WIND       PRES   REMARKS
MONTEVIDEO     PTCLDY    77  59  53 SE3       29.85S
GRANITE FALLS  MOCLDY    80  62  54 CALM      29.86S
CANBY          CLEAR     75  66  73 CALM      29.85S
MARSHALL       MOCLDY    78  58  49 NE7       29.84R
REDWOOD FALLS  CLEAR     78  60  53 SE7       29.84R
OLIVIA         PTCLDY    81  57  44 SE6       29.86R
PIPESTONE      CLEAR     81  57  44 S12       29.86S
WINDOM         PTCLDY    79  61  53 E5        29.86R
WORTHINGTON    PTCLDY    75  62  64 S13       29.87S
JACKSON        MOCLDY    79  57  47 SE5       29.87R
TRACY          PTCLDY    80  52  37 SW16      29.83S
SLAYTON        CLEAR     73  52  47 S6        29.87S
$$
MNZ065>067-074>077-082>085-091>093-170500-
   South Central Minnesota

CITY           SKY/WX    TMP DP  RH WIND       PRES   REMARKS
MANKATO        CLEAR     78  57  48 SE10      29.88F
NEW ULM        PTCLDY    79  55  44 SE8       29.85F
ST JAMES       MOCLDY    77  57  50 SE9       29.85S
FAIRMONT       MOCLDY    80  60  50 SE7       29.87R
GLENCOE        PTCLDY    74  57  55 E6        29.86F
FARIBAULT      PTCLDY    77  55  47 SE8       29.91R
OWATONNA       PTCLDY    79  55  44 SE8       29.91S
ALBERT LEA     MOCLDY    77  55  47 SE10      29.91F
$$
MNZ078>079-086>088-094>096-170500-
   Southeast Minnesota

CITY           SKY/WX    TMP DP  RH WIND       PRES   REMARKS
ROCHESTER      PTCLDY    71  54  54 SE8       29.95S
RED WING       CLEAR     77  54  44 SE5       29.91F
STANTON        PTCLDY    76  55  46 SE5       29.90F
DODGE CENTER     N/A     73  52  46 SE7       29.94F
WINONA         PTCLDY    72  57  60 CALM      29.96F
AUSTIN         MOCLDY    77  55  47 SE6       29.93F
$$
ABBREVIATIONS USED IN REMARKS
   TC - TEMPERATURES IN CELSIUS
  WCI - WIND CHILL INDEX
   HX - HEAT INDEX
  VSB - VISIBILITY
$$



USA.gov is the U.S. government's official web portal to all federal, state and local government web resources and services.